Kezdőlap
METAR-TAF:

METAR-TAF

Repülőterek :

Le Mars Municipal Airport

Le Mars, Iowa, Amerikai Egyesült Államok

földrajzi szélesség: 42-46-41N, földrajzi hosszúság: 096-11-37W, magasság: 365 m

Jelenlegi meteorológiai megfigyelések

A jelentés 6 perccel ezelõtt készült, 22:35 UTC
Délnyugati szél 5 kt
Hőmérséklet 12°C
Páratartalom 54%
Légköri nyomás 1012 hPa
Látótávolság: 16.1 km
Derült ég

METAR: KLRJ 222235Z AUTO 23005KT 10SM CLR 12/03 A2988 RMK AO2

Idő: 16:41 (22:41 UTC)


TAF: hiányzik

Meteorológiai megfigyelések és előrejelzések több, mint 4000 repülőtéren (METAR és TAF jelentéseket).

A térképen piros és sárga pontok jelzik az elérhető meteorológiai állomásokat.

Mozgassa az egeret a pont fölött, hogy megjelenjen az állomás neve.

Azután kattintson az időjárási megfigyelések és előrejelzések megtekintéséhez.

A térkép megváltoztatása: kattintson a fekete keresztel jelölt zöld gombra ráközelítéshez, a vonallal jelölt zöld gombra távolításhoz, vagy a zöld nyilakra a szomszédos térképek eléréséhez.


METAR-TAF: